#timestamp,LO_Frequency,Hit,StdDev 
1538215215.8,286047005.3,P
1538215235.7,286047005.1,Y
1538215255.5,286046999.7,P
1538215275.3,286047001.7,N
1538215295.2,286047002.2,N
1538215315.9,286047002.4,N
1538215335.7,286047002.5,N
1538215355.6,286047002.3,N
1538215375.4,286047001.3,N
1538215395.3,286047003.2,N
1538215415.1,286047004.3,Y
1538215416.0,286047004.3,P
1538215435.8,286047000.6,N
1538215455.7,286047000.7,N
1538215475.5,286047001.5,N
1538215495.3,286047002.7,N
1538215515.2,286047001.8,N
1538215535.0,286047000.3,N
1538215535.9,286047000.3,N
1538215555.8,286047000.0,N
1538215575.6,286047000.6,N
1538215595.4,286047002.4,N
1538215615.3,286047000.2,N
1538215635.1,286047002.6,N
1538215655.8,286047002.7,N
1538215675.7,286047000.8,N
1538215695.5,286046998.1,N
1538215715.4,286047001.2,N
1538215735.2,286047001.2,N
1538215755.0,286046996.6,N
1538215755.9,286046996.6,N
1538215775.8,286046996.8,N
1538215795.6,286046998.0,N
1538215815.4,286046999.1,N
1538215835.3,286046997.2,N
1538215855.1,286046998.0,N
1538215875.9,286046995.1,N
1538215895.7,286046997.9,N
1538215915.5,286046994.9,N
1538215935.4,286046994.0,N
1538215955.2,286046992.2,Y
1538215975.0,286046994.5,P
1538215975.9,286046994.5,N
1538215995.8,286046990.7,P
1538216015.6,286046990.6,N
1538216035.5,286046991.2,N
1538216055.3,286046987.1,Y
1538216075.1,286046996.3,P
1538216095.9,286046996.4,N
1538216115.7,286046996.3,N
1538216135.6,286046995.0,Y
1538216155.4,286047000.3,P
1538216175.2,286046998.1,N
1538216195.1,286047001.1,N
1538216196.0,286047001.1,N
1538216215.8,286046999.4,N
1538216235.6,286046996.6,N
1538216255.5,286046999.5,N
1538216275.3,286046998.1,N
1538216295.2,286046999.0,N
1538216315.9,286046997.3,N
1538216335.7,286046997.5,N
1538216355.6,286046997.4,N
1538216375.4,286046999.6,N
1538216395.2,286046999.2,N
1538216415.1,286046998.1,N
1538216416.0,286046998.1,N
1538216435.8,286047001.1,N
1538216455.7,286047000.5,N
1538216475.5,286047002.2,N
1538216495.3,286047002.8,N
1538216515.2,286047002.2,N
1538216535.0,286047002.0,N
1538216535.9,286047002.0,N
1538216555.7,286047001.3,N
1538216575.6,286047001.6,N
1538216595.4,286047001.8,N
1538216615.3,286047002.3,N
1538216635.1,286047000.0,N
1538216636.0,286047000.0,N
1538216655.8,286047000.0,N
1538216675.7,286047000.2,N
1538216695.5,286046998.5,N
1538216715.3,286047001.2,N
1538216735.2,286047000.0,N
1538216755.0,286047000.1,N
1538216755.9,286047000.1,N
1538216775.8,286047002.6,N
1538216795.6,286047000.0,N
1538216815.4,286047002.0,N
1538216835.3,286047001.7,N
1538216855.1,286046999.8,N
1538216875.9,286046999.9,N
1538216895.7,286046998.2,N
1538216915.5,286047000.4,N
1538216935.4,286046999.0,N
1538216955.2,286046997.1,N
1538216975.0,286046997.9,N
1538216975.9,286046997.9,N
1538216995.8,286046997.3,N
1538217015.6,286046993.8,Y
1538217035.5,286046994.2,P
1538217055.3,286046991.8,N
1538217075.1,286046992.4,N
1538217095.9,286046994.1,N
1538217115.7,286046991.9,N
1538217135.5,286046992.5,N
1538217155.4,286046992.9,N
1538217175.2,286046994.7,N
1538217195.1,286046994.7,N
1538217196.0,286046994.7,N
1538217215.8,286046993.4,N
1538217235.6,286046993.8,N
1538217255.5,286046996.2,N
1538217275.3,286046993.4,Y
1538217295.2,286046998.6,P
1538217315.9,286047000.4,N
1538217335.7,286047001.0,N
1538217355.6,286047000.4,N
1538217375.4,286047000.7,N
1538217395.2,286046998.1,N
1538217415.1,286046997.9,N
1538217416.0,286046997.9,N
1538217435.8,286046997.9,N
1538217455.7,286046995.0,N
1538217475.5,286046995.5,N
1538217495.3,286046996.2,N
1538217515.2,286046994.2,N
1538217535.9,286046995.6,N
1538217555.7,286046995.3,N
1538217575.6,286046995.9,N
1538217595.4,286046993.8,N
1538217615.2,286046993.5,N
1538217635.1,286046993.4,N
1538217636.0,286046993.4,N
1538217655.8,286046995.1,N
1538217675.7,286046993.6,N
1538217695.5,286046994.3,N
1538217715.3,286046993.9,N
1538217735.2,286046994.1,N
1538217755.0,286046994.4,N
1538217755.9,286046994.4,N
1538217775.8,286046994.3,N
1538217795.6,286046993.3,N
1538217815.4,286046994.5,N
1538217835.3,286046994.4,N
1538217855.1,286046992.7,Y
1538217875.8,286046995.8,P
1538217895.7,286046994.9,P
1538217915.5,286046997.9,P
1538217935.4,286046997.9,N
1538217955.2,286046999.5,N
1538217975.0,286046997.1,N
1538217975.9,286046997.1,N
1538217995.8,286046997.6,N
1538218015.6,286046995.7,Y
1538218035.5,286046997.0,P
1538218055.3,286046997.7,P
1538218075.1,286046994.9,P
1538218095.9,286046996.9,N
1538218115.7,286046999.6,N
1538218135.5,286046997.4,N
1538218155.4,286046996.8,N
1538218175.2,286046996.8,N
1538218195.0,286046997.3,N
1538218196.0,286046997.3,N
1538218215.8,286046999.4,N
1538218235.6,286046996.9,N
1538218255.5,286046999.5,N
1538218275.3,286046997.7,N
1538218295.1,286046997.1,N
1538218315.9,286046996.7,N
1538218335.7,286046997.6,N
1538218355.5,286046995.1,Y
1538218375.4,286046997.4,P
1538218395.2,286046997.1,P
1538218415.1,286046999.2,P
1538218416.0,286046999.2,N
1538218435.8,286047000.4,N
1538218455.6,286047000.7,N
1538218475.5,286046999.9,N
1538218495.3,286046998.1,N
1538218515.1,286046998.5,N
1538218535.9,286046998.2,N
1538218555.7,286047002.3,N
1538218575.6,286046999.8,N
1538218595.4,286047002.2,N
1538218615.2,286047002.1,N
1538218635.1,286047002.4,N
1538218636.0,286047002.4,N
1538218655.8,286046999.7,N
1538218675.6,286046999.9,N
1538218695.5,286046999.7,N
1538218715.3,286047002.4,N
1538218735.2,286047001.1,N
1538218755.9,286047001.1,N
1538218775.7,286046999.9,N
1538218795.6,286047001.2,N
